TimeCST,TemperatureF,Dew PointF,Humidity,Sea Level PressureIn,VisibilityMPH,Wind Direction,Wind SpeedMPH,Gust SpeedMPH,PrecipitationIn,Events,Conditions,WindDirDegrees,DateUTC
12:53 AM,41.0,35.1,79,30.38,10.0,NNW,18.4,24.2,N/A,,Clear,330,2013-01-18 06:53:00
1:53 AM,39.9,35.1,83,30.39,10.0,NNW,13.8,-,N/A,,Clear,330,2013-01-18 07:53:00
2:53 AM,39.0,35.1,86,30.40,10.0,NNW,11.5,-,N/A,,Clear,340,2013-01-18 08:53:00
3:26 AM,37.4,33.8,87,30.42,10.0,NNW,9.2,-,N/A,,Clear,340,2013-01-18 09:26:00
3:53 AM,37.0,34.0,89,30.43,10.0,NNW,6.9,-,N/A,,Clear,340,2013-01-18 09:53:00
4:53 AM,37.9,35.1,89,30.44,10.0,North,13.8,-,N/A,,Clear,350,2013-01-18 10:53:00
5:53 AM,37.9,34.0,86,30.46,10.0,North,10.4,-,N/A,,Clear,350,2013-01-18 11:53:00
6:53 AM,37.0,34.0,89,30.48,8.0,North,8.1,-,N/A,,Clear,350,2013-01-18 12:53:00
7:53 AM,39.9,35.1,83,30.50,10.0,North,10.4,-,N/A,,Clear,360,2013-01-18 13:53:00
8:53 AM,43.0,35.1,74,30.53,10.0,North,12.7,-,N/A,,Clear,10,2013-01-18 14:53:00
9:53 AM,46.0,34.0,63,30.53,10.0,NNE,10.4,-,N/A,,Clear,20,2013-01-18 15:53:00
10:53 AM,48.9,34.0,56,30.52,10.0,North,9.2,-,N/A,,Clear,10,2013-01-18 16:53:00
11:53 AM,52.0,36.0,54,30.48,10.0,NE,5.8,-,N/A,,Clear,40,2013-01-18 17:53:00
12:53 PM,55.0,36.0,49,30.45,10.0,NNW,8.1,-,N/A,,Clear,340,2013-01-18 18:53:00
1:53 PM,57.0,37.0,47,30.43,10.0,North,6.9,-,N/A,,Clear,360,2013-01-18 19:53:00
2:53 PM,57.9,36.0,44,30.41,10.0,North,9.2,-,N/A,,Clear,10,2013-01-18 20:53:00
3:53 PM,57.9,36.0,44,30.41,10.0,NNW,9.2,-,N/A,,Clear,340,2013-01-18 21:53:00
4:53 PM,55.0,36.0,49,30.41,10.0,North,8.1,-,N/A,,Clear,350,2013-01-18 22:53:00
5:53 PM,48.0,36.0,63,30.43,10.0,NW,4.6,-,N/A,,Clear,320,2013-01-18 23:53:00
6:53 PM,45.0,37.0,74,30.44,10.0,NW,3.5,-,N/A,,Clear,310,2013-01-19 00:53:00
7:53 PM,42.1,36.0,79,30.44,10.0,Calm,Calm,-,N/A,,Clear,0,2013-01-19 01:53:00
8:53 PM,48.9,39.9,71,30.44,10.0,NE,4.6,-,N/A,,Clear,50,2013-01-19 02:53:00
9:53 PM,39.9,37.0,89,30.43,10.0,Calm,Calm,-,N/A,,Clear,0,2013-01-19 03:53:00
10:53 PM,37.0,36.0,96,30.41,10.0,NW,3.5,-,N/A,,Clear,320,2013-01-19 04:53:00
11:53 PM,37.0,35.1,93,30.40,10.0,NW,8.1,-,N/A,,Clear,320,2013-01-19 05:53:00